TITAN 3C TRANSTAGE DEB, 43453

Orbit data source: Space-Track

TITAN 3C TRANSTAGE DEB, 43453 is space debris in GEO originally from a launch on Sun, 09 Feb 1969 UTC launched from the Air Force Eastern Test Range (AFETR). Debris objects in space refer to the collection of defunct objects orbiting the Earth. Examples of debris include non-operational satellites, rocket bodies, and fragments generated from explosions, collisions, or faulty payload assembly.

Loading next visibility...
Identifier
43453, 1969-013L
Orbit
GEO
Country
Flag of USUS
Related business
Manufacturer
Martin Marietta
Mission
Spacecraft
Bus & Motor
Unknown
Mass
Unknown
Launch date (UTC)
1969-02-09 (57 years ago)
Launch vehicle
Unknown
Launch site
Air Force Eastern Test Range (AFETR)
Object type
Payload
Rocket body
Debris
Shape & HBR
Unknown
Radar Cross Section
RCS unknown

Expand to show TLE details & history
Last TLE update: 21 hours ago

TLE from 21 hours ago
0 TITAN 3C TRANSTAGE DEB
1 43453U 69013L   25258.00777520 -.00000089  00000-0  00000-0 0  9996
2 43453   1.2666 163.1022 0908075 322.8203  31.1932  1.07387666 29088
Epoch: 2025-09-15T00:11Z
TLE epoch observation values (Epoch: 2025-09-15T00:11:11.777Z)
Latitude
-0°
Longitude
166.01189°
Altitude
30,864.521 km
Speed
3.393 km/s
True Right ascension
10h 52m 07s
True Declination
0° 00' 00"
Sunlit
Object was in daylight at epoch
Visualization orbit readout
Latitude
Unknown
Longitude
Unknown
Altitude
Unknown
Speed
Unknown
Apparent Right ascension
Unknown
Apparent Declination
Unknown
Sunlit
N/A
Visualization observer readout
Local Sidereal Time
13:55:15
Azimuth
Unknown
Elevation
Unknown
Doppler factor
Unknown
Orbital elements
Apogee altitude
37,561.778 km
Perigee altitude
30,245.962 km
Semi-major axis
40,282.007 km
Eccentricity
0.09081
Inclination
1.2666°
RAAN
163.1022°
Arg. of periapsis
322.8203°
True anomaly
37.14851°
Mean anomaly
31.1932°
Eccentric anomaly
34.11097°
Mean motion
0.26846 °/min
Orbital period
1,340.99 mins
BSTAR
0
Loading maneuver chart data...
Computing Atmospheric mass density...

Documentation

Showing up to 5 results
|